Location: Mount Tamalpais State Park
(37.9108°N, 122.6128°W)
Time: 17:17:47
(UTC-08:00)

Cosmos 1814 Rocket - Visible Passes

Search period start: 11 February 2016 00:00
Search period end: 21 February 2016 00:00
Orbit: 744 x 788 km, 74.1° (Epoch: 11 February)

Date Brightness Start Highest point End Pass type
(mag) Time Alt. Az. Time Alt. Az. Time Alt. Az.
11 Feb 5.9 18:17:25 10° NE 18:17:58 10° NE 18:18:30 10° ENE visible
11 Feb 4.2 19:55:32 10° NNW 19:59:58 62° N 19:59:58 62° N visible
12 Feb 4.2 19:18:11 10° N 19:23:18 46° ENE 19:24:31 39° ESE visible
12 Feb 6.4 21:01:18 10° NW 21:04:50 19° W 21:04:50 19° W visible
13 Feb 4.9 18:41:08 10° N 18:45:36 27° ENE 18:49:29 12° ESE visible
13 Feb 5.5 20:22:56 10° NW 20:27:37 33° W 20:29:52 23° SW visible
14 Feb 4.5 19:45:04 10° NNW 19:50:16 60° WSW 19:55:21 10° S visible
15 Feb 3.9 19:07:30 10° NNW 19:12:48 77° ENE 19:17:59 10° SSE visible
15 Feb 7.1 20:52:58 10° W 20:54:01 11° W 20:55:03 10° WSW visible
16 Feb 4.3 18:30:12 10° N 18:35:13 43° ENE 18:40:09 10° SE visible
16 Feb 6.5 20:13:07 10° NW 20:16:51 20° W 20:20:33 10° SW visible
17 Feb 5.6 19:34:50 10° NW 19:39:35 35° W 19:44:16 10° SSW visible
18 Feb 4.5 18:57:00 10° NNW 19:02:13 64° WSW 19:07:19 10° S visible
19 Feb 4.0 18:19:29 10° NNW 18:24:44 72° ENE 18:29:54 10° SSE visible
19 Feb 7.2 20:04:20 10° WNW 20:06:00 11° W 20:07:40 10° WSW visible
20 Feb 6.6 19:24:56 10° NW 19:28:49 21° W 19:32:40 10° SW visible
